This is the latest recevied weather packets stored in our database for station/object BI2QYU-13. If no packets are shown the sender has not sent any weather packets the latest 10 day(s).
| Time | Temp. | Humidity | Pressure | Rain* | Wind** | Luminosity | Snow |
|---|---|---|---|---|---|---|---|
| 1777933722 | 27.22° C | 20% | 1025 hPa | 0 mm | - | - | - |
| 1777931919 | 26.67° C | 20% | 1025 hPa | 0 mm | - | - | - |
| 1777930116 | 26.11° C | 19% | 1025 hPa | 0 mm | - | - | - |
| 1777928314 | 26.11° C | 19% | 1025 hPa | 0 mm | - | - | - |
| 1777926511 | 26.11° C | 18% | 1025 hPa | 0 mm | - | - | - |
| 1777924709 | 26.67° C | 17% | 1025 hPa | 0 mm | - | - | - |
| 1777922906 | 26.11° C | 18% | 1025 hPa | 0 mm | - | - | - |
| 1777921100 | 26.67° C | 18% | 1025 hPa | 0 mm | - | - | - |
| 1777919298 | 26.67° C | 17% | 1025 hPa | 0 mm | - | - | - |
| 1777917495 | 26.67° C | 18% | 1025 hPa | 0 mm | - | - | - |
| 1777915693 | 26.67° C | 19% | 1025 hPa | 0 mm | - | - | - |
| 1777913890 | 27.22° C | 19% | 1025 hPa | 0 mm | - | - | - |
| 1777912087 | 27.78° C | 18% | 1025 hPa | 0 mm | - | - | - |
| 1777910284 | 27.78° C | 16% | 1025 hPa | 0 mm | - | - | - |
| 1777908481 | 27.78° C | 15% | 1025 hPa | 0 mm | - | - | - |
| 1777906674 | 27.78° C | 14% | 1025 hPa | 0 mm | - | - | - |
| 1777904865 | 27.78° C | 14% | 1025 hPa | 0 mm | - | - | - |
| 1777903062 | 28.33° C | 15% | 1025 hPa | 0 mm | - | - | - |
| 1777901259 | 27.22° C | 15% | 1025 hPa | 0 mm | - | - | - |
| 1777899456 | 27.22° C | 17% | 1025 hPa | 0 mm | - | - | - |
| 1777897653 | 26.67° C | 18% | 1025 hPa | 0 mm | - | - | - |
| 1777895851 | 27.22° C | 19% | 1025 hPa | 0 mm | - | - | - |
| 1777894047 | 28.33° C | 20% | 1025 hPa | 0 mm | - | - | - |
| 1777892244 | 28.89° C | 26% | 1025 hPa | 0 mm | - | - | - |
| 1777890441 | 29.44° C | 23% | 1025 hPa | 0 mm | - | - | - |
* Rain latest hour (hover to see other rain measurements)
** Current wind speed in m/s (hover to see current wind gust speed)